Pleasanton, CA

6:27 PM PST on February 07, 2016 (GMT -0800)
Livermore Municipal

Weather History for KLVK - April, 2014

Change the Weather History Date:

Monday, April 28, 2014

  Actual Average Record
Temperature  
Mean Temperature 62 °F 59 °F  
Max Temperature 77 °F 72 °F 93 °F (1981)
Min Temperature 46 °F 47 °F 29 °F (1970)
Degree Days  
Heating Degree Days 3 6  
Month to date heating degree days 121 247  
Since 1 July heating degree days 1845 2611  
Cooling Degree Days 0 1  
Month to date cooling degree days 10 3  
Year to date cooling degree days 10 4  
Growing Degree Days 12 (Base 50)    
Moisture  
Dew Point 45 °F    
Average Humidity 59    
Maximum Humidity 93    
Minimum Humidity 24    
Precipitation  
Precipitation 0.00 in 0.02 in 1.62 in (1983)
Month to date precipitation 0.83 0.96  
Year to date precipitation 4.81 9.20  
Since 1 July precipitation 7.19  
Sea Level Pressure  
Sea Level Pressure 30.17 in    
Wind  
Wind Speed 4 mph (West)    
Max Wind Speed 18 mph    
Max Gust Speed 24 mph    
Visibility 10 miles    
Events      
T = Trace of Precipitation, MM = Missing Value Source: NWS Daily Summary

Daily Weather History Graph

Daily Weather History Graph

Search for Another Location

Airport or City:

Trip Planner

Search our weather history database for the weather conditions in past years. The results will help you decide how hot, cold, wet, or windy it might be!

Date:

Astronomy

Apr. 28, 2014 Rise Set
Actual Time 6:15 AM PDT 7:54 PM PDT
Civil Twilight 5:47 AM PDT 8:22 PM PDT
Nautical Twilight 5:13 AM PDT 8:56 PM PDT
Astronomical Twilight 4:37 AM PDT 9:32 PM PDT
Moon 5:55 AM PDT (4/28) 7:39 PM PDT (4/28)
Length of Visible Light 14h 35m
Length of Day
13h 39m
Waning Crescent, 0% of the Moon is Illuminated
Apr 28
Waning Crescent
Apr 28
New
May 6
First Quarter
May 14
Full
May 21
Last Quarter

Hourly Weather History & Observations

Time (PDT) Temp. Dew Point Humidity Pressure Visibility Wind Dir Wind Speed Gust Speed Precip Events Conditions
1:53 AM 50.0 °F 46.9 °F 89% 30.14 in 10.0 mi Calm Calm - N/A   Clear
3:53 AM 48.9 °F 46.0 °F 90% 30.14 in 10.0 mi Calm Calm - N/A   Clear
4:53 AM 48.0 °F 45.0 °F 89% 30.15 in 10.0 mi Calm Calm - N/A   Clear
5:53 AM 46.0 °F 44.1 °F 93% 30.16 in 10.0 mi Calm Calm - N/A   Clear
7:53 AM 51.1 °F 46.9 °F 86% 30.20 in 9.0 mi Calm Calm - N/A   Clear
8:53 AM 55.9 °F 46.9 °F 72% 30.20 in 10.0 mi Calm Calm - N/A   Clear
9:53 AM 59.0 °F 46.9 °F 64% 30.22 in 10.0 mi WNW 4.6 mph - N/A   Clear
10:53 AM 62.1 °F 46.9 °F 58% 30.22 in 10.0 mi Variable 3.5 mph - N/A   Clear
11:53 AM 66.9 °F 48.0 °F 51% 30.20 in 10.0 mi Variable 4.6 mph - N/A   Clear
12:53 PM 70.0 °F 46.9 °F 44% 30.18 in 10.0 mi Variable 5.8 mph - N/A   Clear
1:53 PM 73.0 °F 43.0 °F 34% 30.16 in 10.0 mi West 8.1 mph - N/A   Clear
2:53 PM 75.9 °F 39.0 °F 26% 30.15 in 10.0 mi NW 12.7 mph 19.6 mph N/A   Clear
3:53 PM 77.0 °F 37.9 °F 24% 30.15 in 10.0 mi NW 9.2 mph 20.7 mph N/A   Clear
4:53 PM 77.0 °F 42.1 °F 29% 30.14 in 10.0 mi West 9.2 mph 18.4 mph N/A   Clear
5:53 PM 73.0 °F 48.0 °F 41% 30.13 in 10.0 mi WSW 12.7 mph - N/A   Clear
6:53 PM 69.1 °F 45.0 °F 42% 30.14 in 10.0 mi WSW 12.7 mph - N/A   Clear
7:53 PM 66.0 °F 45.0 °F 47% 30.14 in 10.0 mi WSW 9.2 mph - N/A   Clear
8:53 PM 61.0 °F 46.0 °F 58% 30.16 in 10.0 mi West 4.6 mph - N/A   Clear
9:53 PM 62.1 °F 44.1 °F 52% 30.17 in 10.0 mi Calm Calm - N/A   Clear
10:53 PM 59.0 °F 45.0 °F 60% 30.17 in 10.0 mi Calm Calm - N/A   Clear
11:53 PM 55.9 °F 44.1 °F 64% 30.17 in 10.0 mi Calm Calm - N/A   Clear